This is the latest recevied weather packets stored in our database for station/object N4RCT. If no packets are shown the sender has not sent any weather packets the latest 10 day(s).
| Time | Temp. | Humidity | Pressure | Rain* | Wind** | Luminosity | Snow |
|---|---|---|---|---|---|---|---|
| 1777915035 | 24.44° C | 48% | 1015.5 hPa | 0 mm | - | 706 W/m² | - |
| 1777914732 | 23.89° C | 48% | 1015.9 hPa | 0 mm | - | 751 W/m² | - |
| 1777914428 | 23.33° C | 50% | 1015.7 hPa | 0 mm | - | 734 W/m² | - |
| 1777914126 | 23.33° C | 47% | 1015.9 hPa | 0 mm | - | 703 W/m² | - |
| 1777913822 | 23.33° C | 47% | 1016.1 hPa | 0 mm | - | 681 W/m² | - |
| 1777913518 | 23.33° C | 51% | 1016.2 hPa | 0 mm | - | 675 W/m² | - |
| 1777913215 | 23.33° C | 49% | 1016.2 hPa | 0 mm | - | 738 W/m² | - |
| 1777912911 | 22.22° C | 49% | 1016.2 hPa | 0 mm | - | 771 W/m² | - |
| 1777912608 | 22.78° C | 50% | 1016.2 hPa | 0 mm | - | 737 W/m² | - |
| 1777912304 | 22.22° C | 49% | 1016.2 hPa | 0 mm | - | 714 W/m² | - |
| 1777912000 | 23.33° C | 50% | 1016.4 hPa | 0 mm | - | 770 W/m² | - |
| 1777911696 | 22.22° C | 52% | 1016.5 hPa | 0 mm | - | 763 W/m² | - |
| 1777911392 | 22.22° C | 51% | 1016.2 hPa | 0 mm | - | 774 W/m² | - |
| 1777911091 | 22.78° C | 51% | 1016.4 hPa | 0 mm | - | 715 W/m² | - |
| 1777910788 | 22.22° C | 52% | 1016.5 hPa | 0 mm | - | 750 W/m² | - |
| 1777910484 | 21.67° C | 52% | 1016.7 hPa | 0 mm | - | 768 W/m² | - |
| 1777910181 | 21.67° C | 55% | 1016.6 hPa | 0 mm | - | 762 W/m² | - |
| 1777909878 | 21.11° C | 52% | 1016.7 hPa | 0 mm | - | 750 W/m² | - |
| 1777909575 | 21.11° C | 52% | 1016.5 hPa | 0 mm | - | 740 W/m² | - |
| 1777909272 | 21.11° C | 53% | 1016.5 hPa | 0 mm | - | 782 W/m² | - |
| 1777908970 | 20.56° C | 53% | 1016.7 hPa | 0 mm | - | 784 W/m² | - |
| 1777908668 | 20.56° C | 56% | 1016.7 hPa | 0 mm | - | 794 W/m² | - |
| 1777908365 | 20° C | 55% | 1016.7 hPa | 0 mm | - | 783 W/m² | - |
| 1777908061 | 20° C | 56% | 1016.6 hPa | 0 mm | - | 782 W/m² | - |
| 1777907756 | 19.44° C | 58% | 1016.8 hPa | 0 mm | - | 776 W/m² | - |
* Rain latest hour (hover to see other rain measurements)
** Current wind speed in m/s (hover to see current wind gust speed)